Time,TemperatureF,DewpointF,PressureIn,WindDirection,WindDirectionDegrees,WindSpeedMPH,WindSpeedGustMPH,Humidity,HourlyPrecipIn,Conditions,Clouds,dailyrainin,SoftwareType,DateUTC
2013-07-27 00:02:00,69.0,43.0,30.06,NNW,338,9.0,10.0,39,0.00,,,0.00,,2013-07-27 06:02:00,
2013-07-27 00:12:00,66.0,45.0,30.07,NW,324,0.0,11.0,47,0.00,,,0.00,,2013-07-27 06:12:00,
2013-07-27 00:22:00,72.0,44.0,30.07,NNW,345,7.0,11.0,37,0.00,,,0.00,,2013-07-27 06:22:00,
2013-07-27 00:33:00,72.0,45.0,30.07,NNW,342,10.0,14.0,38,0.00,,,0.00,,2013-07-27 06:33:00,
2013-07-27 00:43:00,69.0,46.0,30.07,North,355,10.0,15.0,43,0.00,,,0.00,,2013-07-27 06:43:00,
2013-07-27 00:52:00,68.0,45.0,30.07,NNW,342,8.0,14.0,44,0.00,,,0.00,,2013-07-27 06:52:00,
2013-07-27 01:02:00,67.0,49.0,30.07,NNW,344,10.0,12.0,52,0.00,,,0.00,,2013-07-27 07:02:00,
2013-07-27 01:12:00,67.0,47.0,30.07,North,355,7.0,14.0,48,0.00,,,0.00,,2013-07-27 07:12:00,
2013-07-27 01:22:00,65.0,44.0,30.07,NNW,331,9.0,12.0,47,0.00,,,0.00,,2013-07-27 07:22:00,
2013-07-27 01:33:00,66.0,48.0,30.07,NW,313,10.0,12.0,53,0.00,,,0.00,,2013-07-27 07:33:00,
2013-07-27 01:43:00,67.0,50.0,30.07,NW,319,11.0,15.0,54,0.00,,,0.00,,2013-07-27 07:43:00,
2013-07-27 01:52:00,67.0,51.0,30.07,WNW,301,10.0,15.0,56,0.00,,,0.00,,2013-07-27 07:52:00,
2013-07-27 02:02:00,67.0,51.0,30.06,NNW,331,10.0,15.0,56,0.00,,,0.00,,2013-07-27 08:02:00,
2013-07-27 02:12:00,67.0,50.0,30.06,NW,313,11.0,14.0,55,0.00,,,0.00,,2013-07-27 08:12:00,
2013-07-27 02:22:00,67.0,50.0,30.06,NW,318,14.0,19.0,55,0.00,,,0.00,,2013-07-27 08:22:00,
2013-07-27 02:32:00,66.0,50.0,30.06,NW,318,13.0,21.0,56,0.00,,,0.00,,2013-07-27 08:32:00,
2013-07-27 02:43:00,66.0,50.0,30.06,NW,318,15.0,21.0,56,0.00,,,0.00,,2013-07-27 08:43:00,
2013-07-27 02:53:00,66.0,50.0,30.06,WNW,297,16.0,23.0,56,0.00,,,0.00,,2013-07-27 08:53:00,
2013-07-27 03:02:00,66.0,49.0,30.06,WNW,291,14.0,21.0,55,0.00,,,0.00,,2013-07-27 09:02:00,
2013-07-27 03:11:00,66.0,49.0,30.06,NW,312,11.0,18.0,55,0.00,,,0.00,,2013-07-27 09:11:00,
2013-07-27 03:22:00,66.0,50.0,30.06,NNW,327,9.0,19.0,56,0.00,,,0.00,,2013-07-27 09:22:00,
2013-07-27 03:33:00,65.0,49.0,30.06,NW,320,12.0,18.0,56,0.00,,,0.00,,2013-07-27 09:33:00,
2013-07-27 03:44:00,64.0,49.0,30.07,NNW,329,10.0,18.0,58,0.00,,,0.00,,2013-07-27 09:44:00,
2013-07-27 03:52:00,64.0,49.0,30.08,North,355,9.0,12.0,58,0.00,,,0.00,,2013-07-27 09:52:00,
2013-07-27 04:02:00,63.0,48.0,30.07,NNW,327,10.0,14.0,59,0.00,,,0.00,,2013-07-27 10:02:00,
2013-07-27 04:22:00,63.0,48.0,30.07,WNW,302,11.0,14.0,59,0.00,,,0.00,,2013-07-27 10:22:00,
2013-07-27 04:32:00,64.0,48.0,30.07,NW,305,13.0,16.0,57,0.00,,,0.00,,2013-07-27 10:32:00,
2013-07-27 04:43:00,64.0,48.0,30.07,WNW,296,14.0,19.0,57,0.00,,,0.00,,2013-07-27 10:43:00,
2013-07-27 04:52:00,64.0,49.0,30.07,WNW,294,15.0,20.0,58,0.00,,,0.00,,2013-07-27 10:52:00,
2013-07-27 05:02:00,63.0,48.0,30.07,WNW,284,14.0,18.0,59,0.00,,,0.00,,2013-07-27 11:02:00,
2013-07-27 05:12:00,63.0,49.0,30.07,West,275,13.0,18.0,60,0.00,,,0.00,,2013-07-27 11:12:00,
2013-07-27 05:22:00,63.0,49.0,30.06,NW,316,11.0,18.0,60,0.00,,,0.00,,2013-07-27 11:22:00,
2013-07-27 05:32:00,62.0,48.0,30.06,WNW,303,8.0,13.0,61,0.00,,,0.00,,2013-07-27 11:32:00,
2013-07-27 05:43:00,62.0,49.0,30.06,NW,304,12.0,16.0,62,0.00,,,0.00,,2013-07-27 11:43:00,
2013-07-27 05:52:00,63.0,49.0,30.06,NNW,331,11.0,14.0,60,0.00,,,0.00,,2013-07-27 11:52:00,
2013-07-27 06:02:00,60.0,48.0,30.06,NW,323,8.0,13.0,64,0.00,,,0.00,,2013-07-27 12:02:00,
2013-07-27 06:12:00,61.0,47.0,30.06,NW,317,11.0,15.0,61,0.00,,,0.00,,2013-07-27 12:12:00,
2013-07-27 06:22:00,60.0,47.0,30.06,WNW,296,12.0,15.0,62,0.00,,,0.00,,2013-07-27 12:22:00,
2013-07-27 06:33:00,60.0,47.0,30.07,NW,313,14.0,19.0,62,0.00,,,0.00,,2013-07-27 12:33:00,
2013-07-27 06:43:00,60.0,48.0,30.07,NW,312,10.0,14.0,64,0.00,,,0.00,,2013-07-27 12:43:00,
2013-07-27 06:52:00,61.0,48.0,30.07,NW,317,13.0,18.0,63,0.00,,,0.00,,2013-07-27 12:52:00,
2013-07-27 07:02:00,61.0,48.0,30.07,WNW,298,15.0,20.0,63,0.00,,,0.00,,2013-07-27 13:02:00,
2013-07-27 07:12:00,62.0,49.0,30.07,WNW,299,16.0,21.0,62,0.00,,,0.00,,2013-07-27 13:12:00,
2013-07-27 07:22:00,63.0,49.0,30.07,NW,309,15.0,20.0,60,0.00,,,0.00,,2013-07-27 13:22:00,
2013-07-27 07:32:00,64.0,49.0,30.07,NW,309,14.0,19.0,58,0.00,,,0.00,,2013-07-27 13:32:00,
2013-07-27 07:44:00,64.0,48.0,30.07,NW,311,12.0,16.0,57,0.00,,,0.00,,2013-07-27 13:44:00,
2013-07-27 07:53:00,65.0,49.0,30.07,WNW,293,12.0,19.0,57,0.00,,,0.00,,2013-07-27 13:53:00,
2013-07-27 08:02:00,66.0,50.0,30.07,WNW,298,11.0,20.0,56,0.00,,,0.00,,2013-07-27 14:02:00,
2013-07-27 08:12:00,66.0,49.0,30.07,WNW,302,12.0,18.0,55,0.00,,,0.00,,2013-07-27 14:12:00,
2013-07-27 08:32:00,68.0,50.0,30.06,WNW,299,12.0,18.0,52,0.00,,,0.00,,2013-07-27 14:32:00,
2013-07-27 08:44:00,69.0,50.0,30.06,WNW,298,11.0,16.0,51,0.00,,,0.00,,2013-07-27 14:44:00,
2013-07-27 08:54:00,70.0,50.0,30.06,WNW,283,10.0,16.0,50,0.00,,,0.00,,2013-07-27 14:54:00,
2013-07-27 09:12:00,72.0,52.0,30.05,WNW,302,10.0,14.0,49,0.00,,,0.00,,2013-07-27 15:12:00,
2013-07-27 09:22:00,72.0,50.0,30.05,NNW,327,10.0,14.0,46,0.00,,,0.00,,2013-07-27 15:22:00,
2013-07-27 09:33:00,72.0,50.0,30.05,WNW,294,10.0,13.0,46,0.00,,,0.00,,2013-07-27 15:33:00,
2013-07-27 09:44:00,73.0,50.0,30.05,WNW,296,10.0,13.0,45,0.00,,,0.00,,2013-07-27 15:44:00,
2013-07-27 09:53:00,74.0,51.0,30.04,NW,311,7.0,11.0,44,0.00,,,0.00,,2013-07-27 15:53:00,
2013-07-27 10:02:00,74.0,50.0,30.04,NNW,336,7.0,11.0,43,0.00,,,0.00,,2013-07-27 16:02:00,
2013-07-27 10:12:00,75.0,52.0,30.03,North,355,6.0,10.0,45,0.00,,,0.00,,2013-07-27 16:12:00,
2013-07-27 10:22:00,76.0,51.0,30.03,North,360,6.0,8.0,41,0.00,,,0.00,,2013-07-27 16:22:00,
2013-07-27 10:33:00,76.0,49.0,30.03,North,360,2.0,7.0,38,0.00,,,0.00,,2013-07-27 16:33:00,
2013-07-27 10:43:00,77.0,51.0,30.03,NNE,22,2.0,6.0,40,0.00,,,0.00,,2013-07-27 16:43:00,
2013-07-27 10:53:00,78.0,50.0,30.03,NNE,22,3.0,6.0,37,0.00,,,0.00,,2013-07-27 16:53:00,
2013-07-27 11:02:00,79.0,52.0,30.03,NE,44,4.0,5.0,39,0.00,,,0.00,,2013-07-27 17:02:00,
2013-07-27 11:12:00,79.0,51.0,30.02,SE,138,0.0,6.0,38,0.00,,,0.00,,2013-07-27 17:12:00,
2013-07-27 11:22:00,80.0,51.0,30.02,SE,128,0.0,0.0,36,0.00,,,0.00,,2013-07-27 17:22:00,
2013-07-27 11:32:00,80.0,53.0,30.01,SE,124,0.0,0.0,40,0.00,,,0.00,,2013-07-27 17:32:00,
2013-07-27 11:43:00,81.0,51.0,30.01,SE,125,0.0,0.0,35,0.00,,,0.00,,2013-07-27 17:43:00,
2013-07-27 11:53:00,81.0,51.0,30.01,East,101,1.0,4.0,35,0.00,,,0.00,,2013-07-27 17:53:00,
2013-07-27 12:02:00,82.0,52.0,30.01,ESE,106,0.0,0.0,36,0.00,,,0.00,,2013-07-27 18:02:00,
2013-07-27 12:22:00,84.0,45.0,30.00,East,84,2.0,4.0,26,0.00,,,0.00,,2013-07-27 18:22:00,
2013-07-27 12:32:00,83.0,45.0,29.99,NE,43,1.0,6.0,26,0.00,,,0.00,,2013-07-27 18:32:00,
2013-07-27 12:42:00,84.0,45.0,29.98,North,355,4.0,9.0,26,0.00,,,0.00,,2013-07-27 18:42:00,
2013-07-27 13:12:00,85.0,43.0,29.96,NW,317,5.0,10.0,23,0.00,,,0.00,,2013-07-27 19:12:00,
2013-07-27 13:32:00,86.0,43.0,29.96,NNW,338,7.0,11.0,22,0.00,,,0.00,,2013-07-27 19:32:00,
2013-07-27 14:12:00,86.0,40.0,29.95,WNW,296,3.0,11.0,20,0.00,,,0.00,,2013-07-27 20:12:00,
2013-07-27 14:22:00,86.0,39.0,29.95,NNW,339,8.0,12.0,19,0.00,,,0.00,,2013-07-27 20:22:00,
2013-07-27 14:32:00,87.0,37.0,29.95,ENE,67,0.0,7.0,17,0.00,,,0.00,,2013-07-27 20:32:00,
2013-07-27 14:42:00,86.0,39.0,29.94,NW,311,7.0,12.0,19,0.00,,,0.00,,2013-07-27 20:42:00,
2013-07-27 14:52:00,86.0,39.0,29.94,NNW,327,7.0,13.0,19,0.00,,,0.00,,2013-07-27 20:52:00,
2013-07-27 15:02:00,87.0,35.0,29.94,West,262,2.0,10.0,16,0.00,,,0.00,,2013-07-27 21:02:00,
2013-07-27 15:12:00,87.0,35.0,29.94,West,261,6.0,10.0,16,0.00,,,0.00,,2013-07-27 21:12:00,
2013-07-27 15:22:00,87.0,44.0,29.94,South,183,2.0,10.0,22,0.00,,,0.00,,2013-07-27 21:22:00,
2013-07-27 15:33:00,86.0,45.0,29.93,SSW,195,7.0,14.0,24,0.00,,,0.00,,2013-07-27 21:33:00,
2013-07-27 15:42:00,86.0,44.0,29.93,SSW,203,10.0,16.0,23,0.00,,,0.00,,2013-07-27 21:42:00,
2013-07-27 15:52:00,85.0,48.0,29.93,South,169,11.0,21.0,28,0.00,,,0.00,,2013-07-27 21:52:00,
2013-07-27 16:02:00,86.0,41.0,29.92,WNW,287,5.0,16.0,21,0.00,,,0.00,,2013-07-27 22:02:00,
2013-07-27 16:12:00,86.0,39.0,29.92,SW,227,9.0,14.0,19,0.00,,,0.00,,2013-07-27 22:12:00,
2013-07-27 16:22:00,87.0,37.0,29.92,SSW,202,11.0,23.0,17,0.00,,,0.00,,2013-07-27 22:22:00,
2013-07-27 16:32:00,85.0,42.0,29.91,SSW,211,16.0,29.0,22,0.00,,,0.00,,2013-07-27 22:32:00,
2013-07-27 16:43:00,84.0,42.0,29.92,South,182,12.0,24.0,23,0.00,,,0.00,,2013-07-27 22:43:00,
2013-07-27 16:53:00,86.0,41.0,29.92,South,186,10.0,18.0,21,0.00,,,0.00,,2013-07-27 22:53:00,
2013-07-27 17:02:00,87.0,42.0,29.92,West,270,10.0,18.0,21,0.00,,,0.00,,2013-07-27 23:02:00,
2013-07-27 17:12:00,84.0,43.0,29.92,WNW,295,19.0,28.0,24,0.00,,,0.00,,2013-07-27 23:12:00,
2013-07-27 17:22:00,84.0,44.0,29.92,WNW,294,18.0,28.0,25,0.00,,,0.00,,2013-07-27 23:22:00,
2013-07-27 17:32:00,84.0,42.0,29.91,WNW,302,17.0,22.0,23,0.00,,,0.00,,2013-07-27 23:32:00,
2013-07-27 17:44:00,84.0,42.0,29.91,WNW,288,17.0,22.0,23,0.00,,,0.00,,2013-07-27 23:44:00,
2013-07-27 17:52:00,83.0,42.0,29.91,NW,323,13.0,22.0,24,0.00,,,0.00,,2013-07-27 23:52:00,
2013-07-27 18:02:00,83.0,42.0,29.91,WNW,303,12.0,18.0,24,0.00,,,0.00,,2013-07-28 00:02:00,
2013-07-27 18:12:00,83.0,42.0,29.91,WNW,298,12.0,15.0,24,0.00,,,0.00,,2013-07-28 00:12:00,
2013-07-27 18:22:00,83.0,41.0,29.91,NW,307,11.0,15.0,23,0.00,,,0.00,,2013-07-28 00:22:00,
2013-07-27 18:32:00,83.0,42.0,29.91,WNW,290,9.0,15.0,24,0.00,,,0.00,,2013-07-28 00:32:00,
2013-07-27 18:53:00,83.0,44.0,29.90,NW,306,10.0,12.0,25,0.00,,,0.00,,2013-07-28 00:53:00,
2013-07-27 19:02:00,82.0,44.0,29.91,NW,310,8.0,12.0,26,0.00,,,0.00,,2013-07-28 01:02:00,
2013-07-27 19:12:00,82.0,44.0,29.91,WNW,300,7.0,10.0,26,0.00,,,0.00,,2013-07-28 01:12:00,
2013-07-27 19:22:00,80.0,47.0,29.91,NNW,329,5.0,9.0,31,0.00,,,0.00,,2013-07-28 01:22:00,
2013-07-27 19:32:00,79.0,46.0,29.91,NNW,338,6.0,7.0,31,0.00,,,0.00,,2013-07-28 01:32:00,
2013-07-27 19:43:00,80.0,43.0,29.91,NNW,340,6.0,8.0,27,0.00,,,0.00,,2013-07-28 01:43:00,
2013-07-27 19:53:00,79.0,45.0,29.91,NNW,331,7.0,8.0,30,0.00,,,0.00,,2013-07-28 01:53:00,
2013-07-27 20:02:00,79.0,46.0,29.91,NNW,340,6.0,8.0,31,0.00,,,0.00,,2013-07-28 02:02:00,
2013-07-27 20:12:00,78.0,45.0,29.90,NNW,339,5.0,7.0,31,0.00,,,0.00,,2013-07-28 02:12:00,
2013-07-27 20:22:00,79.0,43.0,29.91,NNW,335,4.0,6.0,28,0.00,,,0.00,,2013-07-28 02:22:00,
2013-07-27 20:32:00,79.0,44.0,29.91,North,355,3.0,4.0,29,0.00,,,0.00,,2013-07-28 02:32:00,
2013-07-27 20:53:00,77.0,46.0,29.91,NW,311,14.0,22.0,33,0.00,,,0.00,,2013-07-28 02:53:00,
2013-07-27 21:02:00,77.0,45.0,29.92,NW,313,9.0,14.0,32,0.00,,,0.00,,2013-07-28 03:02:00,
2013-07-27 21:12:00,77.0,46.0,29.93,NW,319,4.0,11.0,33,0.00,,,0.00,,2013-07-28 03:12:00,
2013-07-27 21:22:00,76.0,46.0,29.93,NNW,344,7.0,14.0,35,0.00,,,0.00,,2013-07-28 03:22:00,
2013-07-27 21:32:00,75.0,47.0,29.94,North,349,7.0,10.0,37,0.00,,,0.00,,2013-07-28 03:32:00,
2013-07-27 21:42:00,75.0,48.0,29.94,NNW,339,5.0,9.0,38,0.00,,,0.00,,2013-07-28 03:42:00,
2013-07-27 21:52:00,74.0,48.0,29.94,NNW,330,8.0,14.0,40,0.00,,,0.00,,2013-07-28 03:52:00,
2013-07-27 22:02:00,73.0,49.0,29.94,NW,326,7.0,10.0,42,0.00,,,0.00,,2013-07-28 04:02:00,
2013-07-27 22:12:00,73.0,49.0,29.94,NNW,333,5.0,8.0,42,0.00,,,0.00,,2013-07-28 04:12:00,
2013-07-27 22:22:00,73.0,47.0,29.94,NNW,333,2.0,5.0,40,0.00,,,0.00,,2013-07-28 04:22:00,
2013-07-27 22:32:00,73.0,47.0,29.94,NW,323,5.0,9.0,40,0.00,,,0.00,,2013-07-28 04:32:00,
2013-07-27 22:53:00,72.0,48.0,29.94,NW,319,1.0,7.0,42,0.00,,,0.00,,2013-07-28 04:53:00,
2013-07-27 23:02:00,74.0,47.0,29.94,NW,313,5.0,7.0,38,0.00,,,0.00,,2013-07-28 05:02:00,
2013-07-27 23:12:00,74.0,47.0,29.94,NNW,344,4.0,7.0,38,0.00,,,0.00,,2013-07-28 05:12:00,
2013-07-27 23:22:00,74.0,47.0,29.93,NW,307,3.0,6.0,39,0.00,,,0.00,,2013-07-28 05:22:00,
2013-07-27 23:32:00,75.0,46.0,29.94,SSW,193,4.0,11.0,36,0.00,,,0.00,,2013-07-28 05:32:00,
2013-07-27 23:43:00,75.0,46.0,29.94,WSW,238,9.0,12.0,36,0.00,,,0.00,,2013-07-28 05:43:00,
2013-07-27 23:52:00,75.0,46.0,29.94,West,259,7.0,11.0,36,0.00,,,0.00,,2013-07-28 05:52:00,